Change the Weather History Date:

Monday, July 23, 2012

  Actual Average Record
Temperature  
Mean Temperature 75 °F 71 °F  
Max Temperature 83 °F 82 °F 93 °F (1991)
Min Temperature 67 °F 60 °F 50 °F (1971)
Degree Days  
Heating Degree Days 0 0  
Month to date heating degree days 0 0  
Since 1 June heating degree days 43 38  
Since 1 July heating degree days 0 0  
Cooling Degree Days 10 6  
Month to date cooling degree days 224 144  
Year to date cooling degree days 406 292  
Since 1 June cooling degree days 341 263  
Growing Degree Days 28 (Base 50)    
Moisture  
Dew Point 72 °F    
Average Humidity 83    
Maximum Humidity 100    
Minimum Humidity 65    
Precipitation  
Precipitation 0.13 in 0.14 in 2.32 in (1992)
Month to date precipitation 2.04 3.17  
Year to date precipitation 23.03 24.51  
Snow  
Snow 0.00 in - - ()
Month to date snowfall 0.0  
Since 1 June snowfall 0.0  
Since 1 July snowfall 0.0  
Snow Depth 0.00 in    
Sea Level Pressure  
Sea Level Pressure 30.22 in    
Wind  
Wind Speed 2 mph (WSW)    
Max Wind Speed 8 mph    
Max Gust Speed 21 mph    
Visibility 8 miles    
Events Rain , Thunderstorm    
T = Trace of Precipitation, MM = Missing Value Source: NWS Daily Summary

Daily Weather History Graph

Daily Weather History Graph

Search for Another Location

Airport or City:

Trip Planner

Search our weather history database for the weather conditions in past years. The results will help you decide how hot, cold, wet, or windy it might be!

Date:

Astronomy

Jul. 23, 2012 Rise Set
Actual Time 6:19 AM EDT 8:36 PM EDT
Civil Twilight 5:50 AM EDT 9:05 PM EDT
Nautical Twilight 5:13 AM EDT 9:41 PM EDT
Astronomical Twilight 4:34 AM EDT 10:21 PM EDT
Moon 11:00 AM EDT (7/23) 10:59 PM EDT (7/23)
Length of Visible Light 15h 15m
Length of Day
14h 16m
Waxing Crescent, 21% of the Moon is Illuminated
Jul 23
Waxing Crescent
Jul 26
First Quarter
Aug 1
Full
Aug 9
Last Quarter
Aug 17
New

Hourly Weather History & Observations

Time (EDT) Temp. Heat Index Dew Point Humidity Pressure Visibility Wind Dir Wind Speed Gust Speed Precip Events Conditions
12:35 AM 69.8 °F - 69.8 °F 100% 30.28 in 7.0 mi Calm Calm - N/A   Clear
12:55 AM 69.8 °F - 69.8 °F 100% 30.28 in 7.0 mi Calm Calm - N/A   Clear
1:15 AM 69.8 °F - 69.8 °F 100% 30.27 in 4.0 mi Calm Calm - N/A   Clear
1:35 AM 69.8 °F - 69.8 °F 100% 30.27 in 5.0 mi Calm Calm - N/A   Clear
2:15 AM 69.8 °F - 69.8 °F 100% 30.26 in 4.0 mi Calm Calm - N/A   Clear
2:35 AM 69.8 °F - 69.8 °F 100% 30.26 in 4.0 mi Calm Calm - N/A   Clear
2:55 AM 69.8 °F - 69.8 °F 100% 30.25 in 4.0 mi Calm Calm - N/A   Clear
3:15 AM 69.8 °F - 69.8 °F 100% 30.26 in 5.0 mi Calm Calm - N/A   Clear
3:35 AM 71.6 °F - 71.6 °F 100% 30.25 in 5.0 mi Calm Calm - N/A   Clear
3:55 AM 69.8 °F - 69.8 °F 100% 30.25 in 4.0 mi Calm Calm - N/A   Clear
4:15 AM 69.8 °F - 69.8 °F 100% 30.26 in 4.0 mi Calm Calm - N/A   Clear
4:35 AM 69.8 °F - 69.8 °F 100% 30.25 in 2.5 mi Calm Calm - N/A   Clear
4:55 AM 69.8 °F - 69.8 °F 100% 30.25 in 4.0 mi Calm Calm - N/A   Clear
5:15 AM 69.8 °F - 69.8 °F 100% 30.25 in 4.0 mi Calm Calm - N/A   Clear
5:35 AM 69.8 °F - 69.8 °F 100% 30.25 in 4.0 mi Calm Calm - N/A   Clear
5:55 AM 69.8 °F - 69.8 °F 100% 30.25 in 4.0 mi Calm Calm - N/A   Clear
6:15 AM 69.8 °F - 69.8 °F 100% 30.25 in 5.0 mi Calm Calm - N/A   Clear
6:35 AM 69.8 °F - 69.8 °F 100% 30.25 in 5.0 mi Calm Calm - N/A   Clear
6:55 AM 69.8 °F - 69.8 °F 100% 30.26 in 5.0 mi Calm Calm - N/A   Clear
7:15 AM 69.8 °F - 69.8 °F 100% 30.26 in 7.0 mi Calm Calm - N/A   Clear
7:35 AM 71.6 °F - 71.6 °F 100% 30.27 in 7.0 mi Calm Calm - N/A   Clear
7:55 AM 71.6 °F - 71.6 °F 100% 30.27 in 7.0 mi Calm Calm - N/A   Clear
8:15 AM 71.6 °F - 71.6 °F 100% 30.27 in 10.0 mi Calm Calm - N/A   Clear
8:35 AM 73.4 °F - 71.6 °F 94% 30.26 in 10.0 mi WSW 3.5 mph - N/A   Clear
8:55 AM 73.4 °F - 73.4 °F 100% 30.26 in 10.0 mi SW 3.5 mph - N/A   Clear
9:15 AM 73.4 °F - 71.6 °F 94% 30.26 in 10.0 mi SW 3.5 mph - N/A   Clear
9:35 AM 78.8 °F - 73.4 °F 83% 30.26 in 10.0 mi West 6.9 mph - N/A   Clear
9:55 AM 78.8 °F - 73.4 °F 83% 30.26 in 10.0 mi West 5.8 mph - N/A   Clear
10:15 AM 80.6 °F 85.4 °F 73.4 °F 79% 30.26 in 10.0 mi WSW 8.1 mph - N/A   Scattered Clouds
10:35 AM 80.6 °F 85.4 °F 73.4 °F 79% 30.27 in 10.0 mi West 5.8 mph - N/A   Mostly Cloudy
10:55 AM 80.6 °F 85.4 °F 73.4 °F 79% 30.27 in 10.0 mi WSW 6.9 mph - N/A   Mostly Cloudy
11:15 AM 82.4 °F 88.2 °F 73.4 °F 74% 30.26 in 10.0 mi SW 5.8 mph - N/A   Mostly Cloudy
11:35 AM 84.2 °F 90.9 °F 73.4 °F 70% 30.26 in 10.0 mi WSW 8.1 mph - N/A   Scattered Clouds
11:55 AM 86.0 °F 93.4 °F 73.4 °F 66% 30.25 in 10.0 mi West 8.1 mph - N/A   Scattered Clouds
12:15 PM 87.8 °F 95.6 °F 73.4 °F 62% 30.24 in 10.0 mi West 8.1 mph - N/A   Clear
12:35 PM 75.2 °F - 71.6 °F 89% 30.25 in 7.0 mi SSW 8.1 mph 20.7 mph N/A Rain , Thunderstorm Light Thunderstorms and Rain
12:55 PM 80.6 °F 85.4 °F 73.4 °F 79% 30.24 in 10.0 mi SSW 3.5 mph - N/A   Scattered Clouds
1:15 PM 84.2 °F 90.9 °F 73.4 °F 70% 30.22 in 10.0 mi SSW 4.6 mph - N/A   Clear
1:35 PM 84.2 °F 90.9 °F 73.4 °F 70% 30.22 in 10.0 mi SSW 4.6 mph - N/A   Scattered Clouds
1:55 PM 78.8 °F - 75.2 °F 89% 30.22 in 4.0 mi NW 5.8 mph - 0.05 in Rain , Thunderstorm Heavy Thunderstorms and Rain
2:15 PM 75.2 °F - 73.4 °F 94% 30.22 in 10.0 mi North 4.6 mph - 0.01 in Rain , Thunderstorm Light Thunderstorms and Rain
2:35 PM 78.8 °F - 73.4 °F 83% 30.21 in 10.0 mi Calm Calm - 0.01 in   Scattered Clouds
2:55 PM 78.8 °F - 75.2 °F 89% 30.21 in 10.0 mi Calm Calm - 0.01 in   Clear
3:15 PM 80.6 °F 86.2 °F 75.2 °F 84% 30.19 in 10.0 mi Calm Calm - N/A Rain Light Rain
3:35 PM 82.4 °F 89.5 °F 75.2 °F 79% 30.17 in 10.0 mi West 4.6 mph - N/A Thunderstorm Clear
3:55 PM 82.4 °F 89.5 °F 75.2 °F 79% 30.18 in 10.0 mi West 3.5 mph - N/A Thunderstorm Scattered Clouds
4:15 PM 78.8 °F - 75.2 °F 89% 30.18 in 10.0 mi NW 3.5 mph - N/A Thunderstorm Scattered Clouds
4:35 PM 80.6 °F 86.2 °F 75.2 °F 84% 30.17 in 10.0 mi Calm Calm - N/A Thunderstorm Thunderstorm
4:55 PM 82.4 °F 88.2 °F 73.4 °F 74% 30.18 in 10.0 mi WNW 8.1 mph - N/A Thunderstorm Scattered Clouds
5:15 PM 80.6 °F 85.4 °F 73.4 °F 79% 30.18 in 10.0 mi WNW 5.8 mph - N/A Rain , Thunderstorm Light Thunderstorms and Rain
5:35 PM 78.8 °F - 73.4 °F 83% 30.18 in 7.0 mi NW 3.5 mph - 0.01 in Rain Rain
5:55 PM 77.0 °F - 73.4 °F 89% 30.16 in 10.0 mi ENE 3.5 mph - 0.02 in Rain Light Rain
6:15 PM 77.0 °F - 75.2 °F 94% 30.16 in 10.0 mi Calm Calm - N/A   Clear
6:35 PM 80.6 °F 86.2 °F 75.2 °F 84% 30.16 in 10.0 mi South 4.6 mph - N/A   Clear
6:55 PM 80.6 °F 86.2 °F 75.2 °F 84% 30.15 in 10.0 mi Calm Calm - N/A Thunderstorm Clear
7:15 PM 80.6 °F 85.4 °F 73.4 °F 79% 30.15 in 10.0 mi South 4.6 mph - N/A   Clear
7:35 PM 80.6 °F 85.4 °F 73.4 °F 79% 30.16 in 10.0 mi Calm Calm - N/A   Clear
7:55 PM 78.8 °F - 73.4 °F 83% 30.16 in 10.0 mi Calm Calm - N/A   Clear
8:15 PM 77.0 °F - 73.4 °F 89% 30.16 in 10.0 mi Calm Calm - N/A   Clear
8:35 PM 75.2 °F - 71.6 °F 89% 30.16 in 10.0 mi South 4.6 mph - N/A   Clear
8:55 PM 73.4 °F - 71.6 °F 94% 30.16 in 10.0 mi Calm Calm - N/A   Clear
9:15 PM 73.4 °F - 71.6 °F 94% 30.16 in 10.0 mi Calm Calm - N/A   Clear
9:35 PM 73.4 °F - 71.6 °F 94% 30.15 in 10.0 mi Calm Calm - N/A   Clear
9:55 PM 73.4 °F - 71.6 °F 94% 30.15 in 10.0 mi Calm Calm - N/A   Clear
10:15 PM 73.4 °F - 71.6 °F 94% 30.14 in 10.0 mi Calm Calm - N/A   Clear
10:35 PM 71.6 °F - 71.6 °F 100% 30.15 in 10.0 mi Calm Calm - N/A   Clear
10:55 PM 71.6 °F - 71.6 °F 100% 30.15 in 10.0 mi Calm Calm - N/A   Clear
11:15 PM 71.6 °F - 71.6 °F 100% 30.15 in 10.0 mi Calm Calm - N/A   Clear
11:35 PM 71.6 °F - 71.6 °F 100% 30.15 in 10.0 mi Calm Calm - N/A   Clear
11:55 PM 71.6 °F - 71.6 °F 100% 30.15 in 10.0 mi SW 3.5 mph - N/A   Clear